Hourly Weather Roundup
Issued by NWS Central Illinois

Home | Current Version | Previous Version | Text Only | Print | Product List | Glossary On
Versions: 1 2 3 4 5 6 7 8 9 10 11 12 13 14 15 16 17 18 19 20 21 22 23 24 25 26 27 28 29 30 31 32 33 34 35 36 37 38 39 40 41 42 43 44 45 46 47 48 49 50
000
NZUS43 KILX 240510
HWRILX

Area Weather Roundup
National Weather Service Lincoln IL
1200 AM CDT THU MAY 24 2018

NOTE:  "FAIR" indicates few or no clouds below 12,000 feet, with
       no sigificant weather and/or obstructions to visibility.


CITY           SKY/WX    TMP DP  RH WIND       PRES   REMARKS
Bloomington    FAIR      66  51  58 E7        30.17R
Champaign      FAIR      66  53  63 E7        30.16S
Danville       FAIR      68  53  59 NE5       30.15S
Decatur        FAIR      70  53  54 E7        30.14F
Effingham      FAIR      64  60  86 CALM      30.15F
Flora          FAIR      67  62  82 CALM      30.13S
Galesburg      FAIR      71  57  62 E8        30.15S
Jacksonville   CLEAR     68  60  74 E8        30.12S
Lacon          FAIR      67  57  69 E12       30.14S
Lawrenceville  FAIR      72  59  63 NE5       30.14S
Litchfield     CLOUDY    67  59  73 E6        30.13S
$$


CITY           SKY/WX    TMP DP  RH WIND       PRES   REMARKS
Lincoln        FAIR      69  54  58 CALM      30.14S
Macomb         CLEAR     66  61  84 E7        30.14F
Mattoon        FAIR      68  60  75 CALM      30.14S
Mt Carmel AP   FAIR      70  59  69 E3        30.13S
Olney-Noble AP FAIR      68  59  73 CALM      30.13S
Paris AP       FAIR      63  58  84 NE3       30.17S
Peoria         FAIR      69  59  70 E8        30.13F
Pontiac        FAIR      67  55  64 E10       30.18R
Rantoul        FAIR      68  56  64 E6        30.16S
Robinson       FAIR      64  61  92 CALM      30.15S
Springfield    FAIR      70  59  68 E5        30.13S
Taylorville    FAIR      68  58  71 E3        30.13S
$$

...REGIONAL REPORTS...


CITY           SKY/WX    TMP DP  RH WIND       PRES   REMARKS
Chicago O`Hare FAIR      61  51  70 E6        30.18S
Kankakee       FAIR      62  52  68 E5        30.19S
La Salle       FAIR      70  56  61 E6        30.17S
Moline         FAIR      67  60  78 E7        30.13S
Mount Sterling PTCLDY    71  61  71 CALM      30.12S
Mount Vernon   FAIR      62  61  96 N3        30.12S
Pittsfield     PTCLDY    71  66  86 CALM      30.13S
Quincy         CLEAR     74  64  71 E6        30.12R
Rockford       FAIR      64  53  67 SE3       30.18F
$$


CITY           SKY/WX    TMP DP  RH WIND       PRES   REMARKS
Burlington     CLEAR     73  61  65 E3        30.12S
Cedar Rapids   FAIR      68  62  81 SE6       30.11F
Des Moines     CLEAR     75  63  66 SE9       30.07S
Kirksville     CLEAR    N/A N/A N/A SE7       30.12S
Ottumwa        CLEAR     72  63  73 SE7       30.10S
St Louis       CLOUDY    75  64  68 CALM      30.11F
$$


CITY           SKY/WX    TMP DP  RH WIND       PRES   REMARKS
Terre Haute    FAIR      63  55  75 NE5       30.16S
Evansville     FAIR      70  60  70 NE5       30.13R
Indianapolis   FAIR      69  53  56 E7        30.18S
Lafayette      FAIR      59  54  83 NE3       30.17S
Madison        FAIR      64  60  87 CALM      30.16S
Milwaukee      FAIR      62  49  62 SW5       30.19S
$$






USA.gov is the U.S. government's official web portal to all federal, state and local government web resources and services.